PGT50UU LTFJ-LTAC

Flight info

Callsign PGT50UU
Flight time 0h 56m
Altitude 25000
Route VICEN1J/06L VICEN UT380 ASMAP UL333 LATGA
Aircraft A320/M-SDE3FGHIRWY/LB1

Departure

Time 2026-05-01 13:30
Airport Istanbul Sabiha Gökçen International Airport (LTFJ)

Arrival

Time 2026-05-01 14:26
Airport Esenboğa International Airport (LTAC)
Time Latitude Longitude Altitude Speed Heading
2026-05-01 13:01 40.90645 29.31662 321 ft 0 kts 334°
2026-05-01 13:17 40.90636 29.31667 321 ft 4 kts 333°
2026-05-01 13:17 40.90613 29.31684 320 ft 4 kts 328°
2026-05-01 13:18 40.90572 29.31729 321 ft 4 kts 298°
2026-05-01 13:18 40.90567 29.31756 321 ft 2 kts 244°
2026-05-01 13:18 40.90567 29.31757 321 ft 0 kts 244°
2026-05-01 13:20 40.90561 29.31741 319 ft 4 kts 244°
2026-05-01 13:21 40.90531 29.31661 321 ft 6 kts 244°
2026-05-01 13:21 40.90516 29.31621 321 ft 8 kts 244°
2026-05-01 13:21 40.90493 29.31558 320 ft 8 kts 244°
2026-05-01 13:21 40.90470 29.31495 319 ft 7 kts 244°
2026-05-01 13:22 40.90430 29.31432 321 ft 7 kts 187°
2026-05-01 13:22 40.90399 29.31446 320 ft 7 kts 154°
2026-05-01 13:22 40.90361 29.31471 321 ft 6 kts 154°
2026-05-01 13:22 40.90328 29.31493 320 ft 5 kts 154°
2026-05-01 13:23 40.90297 29.31502 321 ft 7 kts 183°
2026-05-01 13:23 40.90255 29.31436 321 ft 11 kts 244°
2026-05-01 13:23 40.90223 29.31350 319 ft 10 kts 244°
2026-05-01 13:23 40.90189 29.31256 321 ft 13 kts 244°
2026-05-01 13:24 40.90142 29.31129 321 ft 16 kts 244°
2026-05-01 13:24 40.90096 29.31001 321 ft 15 kts 244°
2026-05-01 13:24 40.90052 29.30881 321 ft 16 kts 244°
2026-05-01 13:25 40.89938 29.30571 321 ft 18 kts 244°
2026-05-01 13:25 40.89885 29.30427 320 ft 17 kts 244°
2026-05-01 13:25 40.89836 29.30294 319 ft 15 kts 244°
2026-05-01 13:25 40.89791 29.30172 319 ft 14 kts 244°
2026-05-01 13:26 40.89752 29.30065 321 ft 12 kts 244°
2026-05-01 13:26 40.89710 29.29952 321 ft 16 kts 244°
2026-05-01 13:26 40.89659 29.29815 320 ft 16 kts 244°
2026-05-01 13:26 40.89616 29.29697 320 ft 13 kts 244°
2026-05-01 13:27 40.89580 29.29598 321 ft 11 kts 244°
2026-05-01 13:27 40.89541 29.29492 320 ft 14 kts 244°
2026-05-01 13:27 40.89462 29.29285 321 ft 10 kts 231°
2026-05-01 13:28 40.89352 29.29278 320 ft 8 kts 154°
2026-05-01 13:28 40.89308 29.29306 321 ft 5 kts 154°
2026-05-01 13:29 40.89291 29.29388 322 ft 9 kts 64°
2026-05-01 13:29 40.89315 29.29456 320 ft 32 kts 64°
2026-05-01 13:30 40.90891 29.33795 1324 ft 169 kts 61°
2026-05-01 13:31 40.91942 29.36631 2607 ft 187 kts 61°
2026-05-01 13:31 40.93596 29.41939 4444 ft 228 kts 84°
2026-05-01 13:32 40.92513 29.46257 5907 ft 258 kts 110°
2026-05-01 13:33 40.90327 29.52961 8480 ft 273 kts 111°
2026-05-01 13:33 40.88808 29.57653 10096 ft 286 kts 113°
2026-05-01 13:34 40.87117 29.62860 10737 ft 331 kts 113°
2026-05-01 13:34 40.85246 29.68618 11924 ft 349 kts 114°
2026-05-01 13:35 40.83310 29.74548 13283 ft 363 kts 115°
2026-05-01 13:35 40.82287 29.77673 13974 ft 367 kts 115°
2026-05-01 13:35 40.80240 29.83907 14180 ft 371 kts 115°
2026-05-01 13:36 40.79218 29.87020 14192 ft 371 kts 115°
2026-05-01 13:36 40.78195 29.90147 14193 ft 370 kts 116°
2026-05-01 13:36 40.76151 29.96363 14191 ft 372 kts 116°
2026-05-01 13:37 40.75128 29.99463 14192 ft 371 kts 115°
2026-05-01 13:37 40.74095 30.02583 14193 ft 371 kts 115°
2026-05-01 13:37 40.73063 30.05706 14194 ft 371 kts 115°
2026-05-01 13:37 40.72078 30.08889 14496 ft 376 kts 112°
2026-05-01 13:38 40.70339 30.15424 15834 ft 383 kts 110°
2026-05-01 13:38 40.69493 30.18790 16447 ft 388 kts 111°
2026-05-01 13:38 40.68633 30.22196 17041 ft 392 kts 111°
2026-05-01 13:39 40.67753 30.25623 17616 ft 397 kts 111°
2026-05-01 13:39 40.66888 30.29067 18213 ft 403 kts 108°
2026-05-01 13:39 40.66357 30.32731 18755 ft 411 kts 98°
2026-05-01 13:39 40.66058 30.36484 19264 ft 414 kts 98°
2026-05-01 13:40 40.65751 30.40225 19757 ft 417 kts 99°
2026-05-01 13:40 40.65431 30.44043 20226 ft 423 kts 100°
2026-05-01 13:40 40.65098 30.47968 20730 ft 426 kts 100°
2026-05-01 13:40 40.64772 30.51815 21225 ft 429 kts 100°
2026-05-01 13:41 40.64441 30.55742 21726 ft 432 kts 100°
2026-05-01 13:41 40.64107 30.59708 22228 ft 435 kts 100°
2026-05-01 13:41 40.63771 30.63636 22708 ft 438 kts 101°
2026-05-01 13:41 40.63429 30.67650 23234 ft 441 kts 101°
2026-05-01 13:42 40.62993 30.71661 23707 ft 441 kts 107°
2026-05-01 13:42 40.62220 30.75525 24099 ft 441 kts 111°
2026-05-01 13:42 40.61392 30.79441 24502 ft 443 kts 111°
2026-05-01 13:42 40.60558 30.83374 24921 ft 445 kts 111°
2026-05-01 13:43 40.59729 30.87290 25314 ft 448 kts 111°
2026-05-01 13:43 40.58899 30.91208 25713 ft 450 kts 111°
2026-05-01 13:43 40.58051 30.95194 26107 ft 452 kts 111°
2026-05-01 13:43 40.57198 30.99195 26483 ft 454 kts 111°
2026-05-01 13:44 40.56348 31.03181 26866 ft 456 kts 111°
2026-05-01 13:44 40.55480 31.07243 27230 ft 458 kts 111°
2026-05-01 13:44 40.54614 31.11289 27627 ft 460 kts 111°
2026-05-01 13:44 40.53744 31.15343 28014 ft 462 kts 111°
2026-05-01 13:45 40.52874 31.19385 28386 ft 464 kts 111°
2026-05-01 13:45 40.52001 31.23437 28734 ft 466 kts 111°
2026-05-01 13:45 40.51113 31.27564 29039 ft 467 kts 112°
2026-05-01 13:46 40.49405 31.35522 29101 ft 450 kts 112°
2026-05-01 13:46 40.47692 31.43399 29086 ft 446 kts 112°
2026-05-01 13:47 40.45974 31.51221 29087 ft 446 kts 112°
2026-05-01 13:47 40.44257 31.59062 29078 ft 448 kts 112°
2026-05-01 13:47 40.43390 31.62995 28772 ft 458 kts 112°
2026-05-01 13:48 40.42502 31.67023 27804 ft 457 kts 112°
2026-05-01 13:48 40.41631 31.71001 26916 ft 447 kts 112°
2026-05-01 13:48 40.40809 31.74811 26422 ft 429 kts 112°
2026-05-01 13:48 40.40008 31.78522 25896 ft 414 kts 112°
2026-05-01 13:49 40.39231 31.82097 25368 ft 400 kts 113°
2026-05-01 13:49 40.38479 31.85514 24851 ft 388 kts 113°
2026-05-01 13:49 40.37723 31.88907 24342 ft 378 kts 113°
2026-05-01 13:49 40.36991 31.92177 23848 ft 369 kts 114°
2026-05-01 13:50 40.36279 31.95346 23327 ft 367 kts 114°
2026-05-01 13:50 40.35597 31.98355 22834 ft 366 kts 113°
2026-05-01 13:50 40.34841 32.01697 22244 ft 360 kts 113°
2026-05-01 13:50 40.34140 32.04814 21737 ft 357 kts 113°
2026-05-01 13:51 40.33616 32.08022 21268 ft 360 kts 102°
2026-05-01 13:51 40.33492 32.11328 20806 ft 363 kts 92°
2026-05-01 13:51 40.33767 32.14614 20363 ft 364 kts 84°
2026-05-01 13:51 40.34154 32.17854 19973 ft 362 kts 85°
2026-05-01 13:52 40.34531 32.21130 19732 ft 361 kts 85°
2026-05-01 13:52 40.34895 32.24368 19484 ft 356 kts 85°
2026-05-01 13:52 40.35256 32.27581 19149 ft 354 kts 85°
2026-05-01 13:52 40.35608 32.30719 18819 ft 344 kts 87°
2026-05-01 13:53 40.35726 32.33790 18472 ft 330 kts 97°
2026-05-01 13:53 40.35008 32.39504 17621 ft 313 kts 110°
2026-05-01 13:53 40.34461 32.42262 17201 ft 314 kts 110°
2026-05-01 13:54 40.33921 32.45011 16781 ft 309 kts 110°
2026-05-01 13:54 40.33393 32.47722 16371 ft 303 kts 110°
2026-05-01 13:54 40.32878 32.50370 15956 ft 299 kts 109°
2026-05-01 13:54 40.32365 32.52990 15547 ft 294 kts 110°
2026-05-01 13:55 40.31856 32.55586 15143 ft 290 kts 111°
2026-05-01 13:55 40.31363 32.58102 14755 ft 286 kts 111°
2026-05-01 13:55 40.30859 32.60657 14367 ft 291 kts 110°
2026-05-01 13:55 40.30274 32.63199 13976 ft 287 kts 123°
2026-05-01 13:56 40.29155 32.65220 13576 ft 270 kts 146°
2026-05-01 13:56 40.27596 32.66471 13272 ft 256 kts 168°
2026-05-01 13:56 40.25891 32.66877 13271 ft 246 kts 187°
2026-05-01 13:56 40.24229 32.66511 13275 ft 239 kts 205°
2026-05-01 13:57 40.22814 32.65483 13270 ft 235 kts 222°
2026-05-01 13:57 40.22052 32.64479 13274 ft 234 kts 233°
2026-05-01 13:57 40.21116 32.61935 13271 ft 236 kts 255°
2026-05-01 13:57 40.21018 32.59785 13279 ft 240 kts 272°
2026-05-01 13:58 40.21332 32.57623 13280 ft 243 kts 278°
2026-05-01 13:58 40.21742 32.55464 13279 ft 244 kts 279°
2026-05-01 13:58 40.22030 32.54045 13272 ft 244 kts 279°
2026-05-01 13:58 40.22474 32.51892 13279 ft 244 kts 279°
2026-05-01 13:59 40.22913 32.49744 13274 ft 245 kts 279°
2026-05-01 13:59 40.23430 32.47617 13277 ft 249 kts 289°
2026-05-01 13:59 40.24411 32.45737 13280 ft 259 kts 308°
2026-05-01 13:59 40.25918 32.44349 13275 ft 272 kts 330°
2026-05-01 14:00 40.27784 32.43798 13284 ft 280 kts 355°
2026-05-01 14:00 40.29710 32.44270 13281 ft 287 kts 19°
2026-05-01 14:00 40.31375 32.45740 13284 ft 293 kts 45°
2026-05-01 14:00 40.32460 32.47995 13280 ft 295 kts 72°
2026-05-01 14:01 40.32753 32.50615 13290 ft 292 kts 98°
2026-05-01 14:01 40.32363 32.53212 13286 ft 291 kts 109°
2026-05-01 14:01 40.31864 32.55789 13286 ft 290 kts 110°
2026-05-01 14:01 40.31352 32.58325 13281 ft 290 kts 110°
2026-05-01 14:02 40.30834 32.60885 13282 ft 290 kts 110°
2026-05-01 14:02 40.30247 32.63396 13273 ft 284 kts 122°
2026-05-01 14:02 40.29160 32.65435 13273 ft 271 kts 144°
2026-05-01 14:02 40.27646 32.66786 13271 ft 259 kts 165°
2026-05-01 14:03 40.25936 32.67351 13204 ft 252 kts 182°
2026-05-01 14:03 40.24201 32.67113 12673 ft 251 kts 199°
2026-05-01 14:03 40.22542 32.66570 12432 ft 242 kts 199°
2026-05-01 14:03 40.20915 32.66053 11975 ft 239 kts 199°
2026-05-01 14:04 40.19306 32.65545 11523 ft 239 kts 199°
2026-05-01 14:04 40.17679 32.65031 11156 ft 239 kts 199°
2026-05-01 14:04 40.16062 32.64522 10817 ft 239 kts 199°
2026-05-01 14:04 40.14446 32.64008 10488 ft 239 kts 199°
2026-05-01 14:05 40.12813 32.63488 10372 ft 239 kts 199°
2026-05-01 14:05 40.11224 32.62979 10264 ft 236 kts 199°
2026-05-01 14:05 40.09580 32.62788 10140 ft 237 kts 177°
2026-05-01 14:05 40.08050 32.63577 10055 ft 247 kts 150°
2026-05-01 14:06 40.06879 32.65301 9725 ft 266 kts 120°
2026-05-01 14:06 40.06350 32.67556 9301 ft 276 kts 107°
2026-05-01 14:06 40.05915 32.69970 8839 ft 281 kts 106°
2026-05-01 14:06 40.05317 32.72407 8386 ft 282 kts 118°
2026-05-01 14:07 40.04303 32.74592 7952 ft 282 kts 130°
2026-05-01 14:07 40.03144 32.76658 7529 ft 285 kts 130°
2026-05-01 14:07 40.01969 32.78751 7109 ft 286 kts 128°
2026-05-01 14:08 39.99636 32.82973 6304 ft 287 kts 122°
2026-05-01 14:08 39.99091 32.85370 6218 ft 272 kts 87°
2026-05-01 14:08 39.99621 32.87650 5892 ft 262 kts 51°
2026-05-01 14:08 40.00870 32.89274 5537 ft 254 kts 32°
2026-05-01 14:09 40.02340 32.90546 5205 ft 251 kts 27°
2026-05-01 14:09 40.03802 32.91673 4841 ft 240 kts 26°
2026-05-01 14:09 40.05173 32.92763 4769 ft 222 kts 28°
2026-05-01 14:09 40.06451 32.93841 4728 ft 209 kts 31°
2026-05-01 14:10 40.07641 32.94861 4755 ft 204 kts 31°
2026-05-01 14:10 40.08837 32.95877 5240 ft 205 kts 30°
2026-05-01 14:10 40.10041 32.96917 5880 ft 209 kts 28°
2026-05-01 14:10 40.11269 32.97978 6565 ft 214 kts 30°
2026-05-01 14:11 40.12523 32.99063 7215 ft 219 kts 29°
2026-05-01 14:11 40.15146 33.01336 8470 ft 231 kts 29°
2026-05-01 14:11 40.16513 33.02521 8900 ft 250 kts 29°
2026-05-01 14:12 40.18016 33.03818 9372 ft 266 kts 29°
2026-05-01 14:12 40.19557 33.05306 9907 ft 281 kts 43°
2026-05-01 14:12 40.20609 33.07476 10002 ft 285 kts 72°
2026-05-01 14:12 40.20825 33.09980 10009 ft 281 kts 99°
2026-05-01 14:13 40.20497 33.12487 10012 ft 280 kts 105°
2026-05-01 14:13 40.20220 33.14172 10005 ft 278 kts 106°
2026-05-01 14:13 40.19665 33.17417 10011 ft 276 kts 106°
2026-05-01 14:13 40.19243 33.19864 10010 ft 276 kts 108°
2026-05-01 14:14 40.18536 33.22131 10009 ft 269 kts 129°
2026-05-01 14:14 40.17286 33.23881 10005 ft 259 kts 153°
2026-05-01 14:14 40.15645 33.24619 10007 ft 244 kts 183°
2026-05-01 14:14 40.14043 33.24182 10007 ft 233 kts 210°
2026-05-01 14:15 40.12655 33.23112 10013 ft 232 kts 216°
2026-05-01 14:15 40.11310 33.21957 9842 ft 233 kts 216°
2026-05-01 14:15 40.09957 33.20793 9592 ft 234 kts 216°
2026-05-01 14:15 40.08606 33.19646 9320 ft 232 kts 216°
2026-05-01 14:16 40.07252 33.18500 9059 ft 231 kts 217°
2026-05-01 14:16 40.05899 33.17359 8801 ft 232 kts 216°
2026-05-01 14:16 40.04542 33.16214 8536 ft 232 kts 216°
2026-05-01 14:16 40.03182 33.15078 8297 ft 232 kts 216°
2026-05-01 14:17 40.01830 33.13953 8091 ft 229 kts 217°
2026-05-01 14:17 40.00508 33.12858 7852 ft 229 kts 216°
2026-05-01 14:17 39.99171 33.11749 7685 ft 225 kts 216°
2026-05-01 14:17 39.97864 33.10675 7503 ft 215 kts 217°
2026-05-01 14:18 39.96621 33.09658 7330 ft 207 kts 219°
2026-05-01 14:18 39.95464 33.08544 7153 ft 206 kts 221°
2026-05-01 14:18 39.94367 33.07391 6992 ft 204 kts 224°
2026-05-01 14:18 39.93623 33.06603 6871 ft 201 kts 223°
2026-05-01 14:19 39.92174 33.05090 6644 ft 203 kts 225°
2026-05-01 14:19 39.91189 33.03820 6472 ft 197 kts 245°
2026-05-01 14:19 39.90935 33.02113 6302 ft 194 kts 280°
2026-05-01 14:19 39.91514 33.00520 6126 ft 198 kts 303°
2026-05-01 14:20 39.92361 32.99105 5826 ft 199 kts 306°
2026-05-01 14:20 39.94079 32.96286 5058 ft 202 kts 307°
2026-05-01 14:20 39.94927 32.94807 4760 ft 198 kts 307°
2026-05-01 14:21 39.95722 32.93407 4718 ft 191 kts 306°
2026-05-01 14:21 39.96494 32.92044 4721 ft 189 kts 306°
2026-05-01 14:21 39.97240 32.90744 4722 ft 170 kts 307°
2026-05-01 14:22 39.98805 32.88885 4716 ft 150 kts 349°
2026-05-01 14:22 39.99856 32.88782 4724 ft 149 kts 355°
2026-05-01 14:22 40.00850 32.89046 4704 ft 151 kts 20°
2026-05-01 14:22 40.01714 32.89899 4675 ft 156 kts 32°
2026-05-01 14:23 40.02568 32.90731 4705 ft 154 kts 27°
2026-05-01 14:23 40.03560 32.91198 4719 ft 150 kts 18°
2026-05-01 14:23 40.04481 32.91868 4781 ft 152 kts 30°
2026-05-01 14:23 40.05371 32.92636 4647 ft 152 kts 30°
2026-05-01 14:24 40.06241 32.93430 4463 ft 151 kts 32°
2026-05-01 14:24 40.07070 32.94206 4269 ft 144 kts 33°
2026-05-01 14:24 40.07876 32.94966 4024 ft 141 kts 32°
2026-05-01 14:24 40.08678 32.95725 3814 ft 144 kts 31°
2026-05-01 14:25 40.09465 32.96472 3614 ft 145 kts 32°
2026-05-01 14:25 40.10280 32.97246 3433 ft 145 kts 33°
2026-05-01 14:25 40.11071 32.98003 3236 ft 147 kts 34°
2026-05-01 14:25 40.11890 32.98773 3114 ft 135 kts 34°
2026-05-01 14:26 40.12495 32.99353 3120 ft 82 kts 37°
2026-05-01 14:26 40.12973 32.99831 3124 ft 29 kts 49°
2026-05-01 14:26 40.13057 33.00014 3125 ft 16 kts 65°
2026-05-01 14:27 40.13084 33.00095 3126 ft 8 kts 69°
2026-05-01 14:27 40.13082 33.00156 3126 ft 6 kts 117°
2026-05-01 14:27 40.13027 33.00167 3123 ft 11 kts 200°
2026-05-01 14:28 40.12872 33.00023 3122 ft 16 kts 216°
2026-05-01 14:28 40.12780 32.99933 3124 ft 18 kts 217°
2026-05-01 14:28 40.12675 32.99834 3123 ft 18 kts 216°
2026-05-01 14:28 40.12584 32.99747 3122 ft 17 kts 216°
2026-05-01 14:29 40.12483 32.99650 3121 ft 19 kts 216°
2026-05-01 14:29 40.12371 32.99543 3120 ft 21 kts 216°
2026-05-01 14:30 40.12019 32.99206 3115 ft 21 kts 217°
2026-05-01 14:30 40.11893 32.99084 3114 ft 23 kts 216°
2026-05-01 14:30 40.11787 32.98985 3113 ft 14 kts 216°
2026-05-01 14:31 40.11649 32.98905 3113 ft 9 kts 134°
2026-05-01 14:31 40.11607 32.98945 3113 ft 7 kts 171°
2026-05-01 14:31 40.11558 32.98914 3113 ft 9 kts 222°
2026-05-01 14:31 40.11515 32.98863 3113 ft 8 kts 222°
2026-05-01 14:32 40.11477 32.98824 3113 ft 6 kts 214°
2026-05-01 14:32 40.11472 32.98821 3113 ft 2 kts 207°
2026-05-01 14:32 40.11442 32.98844 3113 ft 3 kts 131°
2026-05-01 14:32 40.11431 32.98862 3113 ft 2 kts 127°
2026-05-01 14:33 40.11425 32.98874 3113 ft 1 kts 127°
2026-05-01 14:33 40.11424 32.98875 3113 ft 0 kts 127°